East Taunton, MA

1:41 PM EDT on September 25, 2016 (GMT -0400)
Taunton Municipal

Weather History for KTAN - August, 2013

Change the Weather History Date:

Tuesday, August 6, 2013

  Actual Average Record
Temperature  
Mean Temperature 62 °F -  
Max Temperature 81 °F 82 °F 93 °F (1980)
Min Temperature 44 °F 60 °F 43 °F (1951)
Degree Days  
Heating Degree Days 2    
Growing Degree Days 12 (Base 50)    
Moisture  
Dew Point 47 °F    
Average Humidity 80    
Maximum Humidity 100    
Minimum Humidity 33    
Precipitation  
Precipitation 0.00 in - - ()
Sea Level Pressure  
Sea Level Pressure 30.10 in    
Wind  
Wind Speed 1 mph (South)    
Max Wind Speed 8 mph    
Max Gust Speed -    
Visibility 6 miles    
Events      
Averages and records for this station are not official NWS values.
T = Trace of Precipitation, MM = Missing Value Source: NWS Daily Summary

Daily Weather History Graph

Daily Weather History Graph

Search for Another Location

Airport or City:

Trip Planner

Search our weather history database for the weather conditions in past years. The results will help you decide how hot, cold, wet, or windy it might be!

Date:

Astronomy

Aug. 06, 2013 Rise Set
Actual Time 5:43 AM EDT 7:56 PM EDT
Civil Twilight 5:12 AM EDT 8:26 PM EDT
Nautical Twilight 4:34 AM EDT 9:04 PM EDT
Astronomical Twilight 3:52 AM EDT 9:46 PM EDT
Moon 5:32 AM EDT (8/6) 7:27 PM EDT (8/6)
Length of Visible Light 15h 14m
Length of Day
14h 12m
Waning Crescent, 0% of the Moon is Illuminated
Aug 6
Waning Crescent
Aug 6
New
Aug 14
First Quarter
Aug 20
Full
Aug 28
Last Quarter

Hourly Weather History & Observations

Time (EDT) Temp. Dew Point Humidity Pressure Visibility Wind Dir Wind Speed Gust Speed Precip Events Conditions
12:52 AM 48.9 °F 46.9 °F 93% 30.05 in 10.0 mi Calm Calm - N/A   Clear
1:30 AM 48.9 °F 46.9 °F 93% 30.05 in 1.8 mi Calm Calm - N/A   Clear
1:37 AM 48.0 °F 46.9 °F 96% 30.05 in 0.8 mi Calm Calm - N/A   Clear
1:43 AM 48.0 °F 46.0 °F 93% 30.05 in 1.5 mi Calm Calm - N/A   Clear
1:52 AM 48.0 °F 46.9 °F 96% 30.06 in 2.0 mi Calm Calm - N/A   Clear
2:08 AM 48.0 °F 46.0 °F 93% 30.05 in 10.0 mi Calm Calm - N/A   Clear
2:52 AM 46.9 °F 46.0 °F 97% 30.06 in 10.0 mi Calm Calm - N/A   Clear
3:31 AM 46.9 °F 45.0 °F 93% 30.07 in 1.8 mi Calm Calm - N/A   Clear
3:41 AM 46.9 °F 45.0 °F 93% 30.07 in 3.0 mi Calm Calm - N/A   Clear
3:52 AM 46.0 °F 45.0 °F 96% 30.07 in 6.0 mi Calm Calm - N/A   Clear
4:17 AM 46.0 °F 45.0 °F 96% 30.07 in 1.5 mi Calm Calm - N/A   Clear
4:25 AM 46.0 °F 45.0 °F 96% 30.07 in 1.2 mi Calm Calm - N/A   Clear
4:36 AM 46.0 °F 44.1 °F 93% 30.07 in 0.8 mi Calm Calm - N/A   Clear
4:40 AM 46.0 °F 44.1 °F 93% 30.07 in 1.5 mi Calm Calm - N/A   Clear
4:43 AM 46.0 °F 44.1 °F 93% 30.07 in 3.0 mi Calm Calm - N/A   Clear
4:52 AM 45.0 °F 44.1 °F 97% 30.08 in 10.0 mi Calm Calm - N/A   Clear
4:58 AM 46.0 °F 44.1 °F 93% 30.08 in 1.8 mi Calm Calm - N/A   Clear
5:02 AM 46.0 °F 44.1 °F 93% 30.08 in 0.8 mi Calm Calm - N/A   Clear
5:12 AM 45.0 °F 44.1 °F 97% 30.08 in 1.8 mi Calm Calm - N/A   Clear
5:14 AM 45.0 °F 44.1 °F 97% 30.08 in 4.0 mi Calm Calm - N/A   Clear
5:22 AM 45.0 °F 44.1 °F 97% 30.08 in 1.8 mi Calm Calm - N/A   Clear
5:30 AM 45.0 °F 44.1 °F 97% 30.08 in 0.8 mi Calm Calm - N/A   Clear
5:47 AM 44.6 °F 44.6 °F 100% 30.09 in 1.0 mi Calm Calm - N/A   Clear
5:52 AM 45.0 °F 44.1 °F 97% 30.09 in 2.0 mi Calm Calm - N/A   Clear
6:19 AM 46.9 °F 46.0 °F 97% 30.10 in 1.8 mi Calm Calm - N/A   Clear
6:22 AM 46.9 °F 46.9 °F 100% 30.10 in 3.0 mi Calm Calm - N/A   Clear
6:52 AM 51.1 °F 50.0 °F 96% 30.11 in 10.0 mi Calm Calm - N/A   Clear
7:52 AM 60.1 °F 55.0 °F 83% 30.12 in 10.0 mi Calm Calm - N/A   Clear
8:52 AM 68.0 °F 52.0 °F 56% 30.13 in 10.0 mi Calm Calm - N/A   Clear
9:52 AM 72.0 °F 50.0 °F 46% 30.13 in 10.0 mi Calm Calm - N/A   Clear
10:52 AM 75.0 °F 48.9 °F 40% 30.12 in 10.0 mi SE 4.6 mph - N/A   Clear
11:52 AM 77.0 °F 46.0 °F 33% 30.12 in 10.0 mi Calm Calm - N/A   Clear
12:52 PM 78.1 °F 48.0 °F 35% 30.12 in 10.0 mi Variable 4.6 mph - N/A   Clear
1:52 PM 81.0 °F 48.9 °F 33% 30.12 in 10.0 mi West 5.8 mph - N/A   Scattered Clouds
2:52 PM 78.1 °F 48.0 °F 35% 30.11 in 10.0 mi Variable 3.5 mph - N/A   Mostly Cloudy
3:52 PM 79.0 °F 51.1 °F 38% 30.11 in 10.0 mi East 8.1 mph - N/A   Mostly Cloudy
4:52 PM 78.1 °F 48.9 °F 36% 30.12 in 10.0 mi SSW 8.1 mph - N/A   Partly Cloudy
5:52 PM 75.9 °F 48.9 °F 38% 30.12 in 10.0 mi SSW 8.1 mph - N/A   Clear
6:52 PM 73.9 °F 50.0 °F 43% 30.13 in 10.0 mi SSW 5.8 mph - N/A   Clear
7:52 PM 66.9 °F 51.1 °F 57% 30.14 in 10.0 mi South 3.5 mph - N/A   Clear
8:52 PM 57.9 °F 52.0 °F 81% 30.16 in 10.0 mi Calm Calm - N/A   Clear
9:52 PM 55.0 °F 52.0 °F 89% 30.16 in 10.0 mi Calm Calm - N/A   Clear
10:52 PM 55.9 °F 53.1 °F 90% 30.15 in 10.0 mi SSE 4.6 mph - N/A   Clear
11:52 PM 55.9 °F 54.0 °F 93% 30.15 in 10.0 mi SE 3.5 mph - N/A   Clear